FW8256 Weather Reports


Display with metric or nautical units.
time (UTC)temp
F
wind
direction
speed
MPH
gust
MPH
rain 1hr
in
rain 24hr
in
rain mn
in
humidity
%
barometer
mb
20260509104526 55 22 0.0 0.0 0.00 0.12 0.00 93 1008.5
20260509103015 56 22 0.0 0.0 0.00 0.12 0.00 93 1008.7
20260509101516 56 22 0.0 0.0 0.00 0.12 0.00 93 1008.7
20260509100017 56 22 0.0 0.0 0.00 0.12 0.00 93 1009.1
20260509094511 56 22 0.0 0.0 0.00 0.12 0.00 93 1009.3
20260509093012 56 21 0.0 0.0 0.00 0.12 0.00 92 1009.3
20260509091509 56 20 0.0 0.0 0.00 0.12 0.00 92 1009.3
20260509090008 56 19 0.0 0.0 0.00 0.12 0.00 92 1009.1
20260509084508 56 21 0.0 0.0 0.00 0.12 0.00 92 1009.3
20260509083006 57 20 0.0 0.0 0.00 0.12 0.00 92 1009.2
20260509081507 57 19 0.0 0.0 0.00 0.12 0.00 92 1009.2
20260509080004 57 20 0.0 0.0 0.00 0.12 0.00 91 1009.3
20260509074603 58 22 0.0 0.0 0.00 0.12 0.00 91 1009.4
20260509073106 58 19 0.0 0.0 0.00 0.12 0.00 91 1009.6
20260509071557 58 17 0.0 0.0 0.00 0.12 0.00 91 1009.7
20260509070057 59 18 0.0 1.0 0.00 0.12 0.00 92 1009.8
20260509064555 59 15 0.0 0.0 0.00 0.12 0.00 92 1009.6
20260509063059 59 169 0.0 0.0 0.00 0.12 0.00 91 1009.6
20260509061606 60 169 0.0 0.0 0.00 0.12 0.00 91 1009.9
20260509060050 60 169 0.0 0.0 0.00 0.12 0.00 91 1009.7
20260509054557 60 169 0.0 0.0 0.00 0.12 0.00 91 1009.7
20260509053058 60 169 0.0 0.0 0.00 0.12 0.00 90 1009.7
20260509051550 61 169 0.0 1.0 0.00 0.12 0.00 90 1009.7
20260509050044 61 169 0.0 1.0 0.00 0.12 0.00 90 1009.6
20260509044548 61 169 0.0 2.0 0.00 0.12 0.12 90 1009.8
20260509043042 61 169 0.0 4.0 0.00 0.12 0.12 89 1009.7
20260509041541 62 173 0.0 3.0 0.00 0.12 0.12 88 1009.3
20260509040042 62 173 1.0 3.0 0.00 0.12 0.12 88 1009.1
20260509034542 62 173 0.0 0.0 0.00 0.12 0.12 87 1008.9
20260509033039 63 173 0.0 1.0 0.00 0.12 0.12 86 1008.7
20260509031539 64 173 0.0 3.0 0.00 0.12 0.12 84 1008.3
20260509030039 64 173 0.0 1.0 0.00 0.12 0.12 84 1007.9
20260509024537 64 360 0.0 1.0 0.00 0.12 0.12 84 1007.6
20260509023039 65 360 0.0 2.0 0.00 0.12 0.12 84 1007.2
20260509021537 65 360 0.0 5.0 0.00 0.12 0.12 84 1007.2
20260509020039 65 360 0.0 0.0 0.00 0.12 0.12 84 1007.0
20260509014536 66 360 0.0 2.0 0.01 0.12 0.12 82 1006.7
20260509013036 66 165 0.0 2.0 0.01 0.12 0.12 81 1006.2
20260509011535 67 360 0.0 5.0 0.01 0.12 0.12 81 1006.2
20260509010034 69 360 2.0 5.0 0.01 0.12 0.12 78 1006.3
20260509004538 72 170 1.0 4.0 0.00 0.11 0.11 76 1006.0
20260509003038 71 170 0.0 3.0 0.00 0.11 0.11 78 1005.4
20260509001533 70 170 1.0 5.0 0.00 0.11 0.11 78 1004.9
20260509000032 69 171 2.0 10.0 0.00 0.11 0.11 81 1004.7
20260508234533 70 169 2.0 6.0 0.00 0.11 0.11 83 1004.6
20260508233032 68 338 0.0 2.0 0.11 0.11 0.11 86 1004.3
20260508231531 66 351 1.0 3.0 0.11 0.11 0.11 88 1004.7
20260508230030 65 349 1.0 5.0 0.11 0.11 0.11 85 1005.1
20260508224531 66 360 1.0 12.0 0.11 0.11 0.11 80 1005.9
20260508223038 80 324 12.0 20.0 0.00 0.00 0.00 52 1005.6
20260508221525 82 210 3.0 7.0 0.00 0.00 0.00 46 1003.9
20260508220030 83 178 2.0 8.0 0.00 0.00 0.00 46 1003.7
20260508214521 85 148 2.0 9.0 0.00 0.00 0.00 45 1004.4
20260508213018 85 217 4.0 8.0 0.00 0.00 0.00 45 1004.9
20260508211515 85 216 6.0 11.0 0.00 0.00 0.00 46 1005.2
20260508210012 85 194 3.0 9.0 0.00 0.00 0.00 47 1005.6
20260508204513 84 252 6.0 12.0 0.00 0.00 0.00 45 1005.9
20260508203006 84 242 6.0 13.0 0.00 0.00 0.00 48 1006.2
20260508201503 84 254 3.0 8.0 0.00 0.00 0.00 49 1006.4
20260508200104 83 268 4.0 8.0 0.00 0.00 0.00 50 1006.6
20260508194558 83 155 4.0 12.0 0.00 0.00 0.00 50 1006.7
20260508193132 82 253 3.0 11.0 0.00 0.00 0.00 52 1006.8
20260508191559 82 266 6.0 11.0 0.00 0.00 0.00 53 1007.0
20260508190051 81 267 3.0 12.0 0.00 0.00 0.00 53 1007.2
20260508184550 80 162 4.0 11.0 0.00 0.00 0.00 54 1007.2
20260508183045 80 254 4.0 12.0 0.00 0.00 0.00 53 1007.6
20260508181546 79 261 6.0 13.0 0.00 0.00 0.00 54 1007.7
20260508180039 78 224 5.0 14.0 0.00 0.00 0.00 54 1008.0
20260508174538 77 253 5.0 12.0 0.00 0.00 0.00 54 1008.3
20260508173034 77 214 4.0 11.0 0.00 0.00 0.00 55 1008.6
20260508171535 76 222 4.0 12.0 0.00 0.00 0.00 55 1008.7
20260508170028 76 163 7.0 14.0 0.00 0.00 0.00 54 1009.2
20260508164524 75 221 5.0 14.0 0.00 0.00 0.00 55 1009.5
20260508163021 75 169 6.0 14.0 0.00 0.00 0.00 53 1009.8
20260508161518 74 170 7.0 16.0 0.00 0.00 0.00 52 1009.8
20260508160016 73 217 5.0 22.0 0.00 0.00 0.00 55 1010.1
20260508154512 71 236 6.0 17.0 0.00 0.00 0.00 56 1010.1
20260508153007 70 264 6.0 17.0 0.00 0.00 0.00 57 1010.3
20260508151504 70 196 7.0 17.0 0.00 0.00 0.00 57 1010.7
20260508150001 69 259 6.0 14.0 0.00 0.00 0.00 60 1010.9
20260508144559 69 205 6.0 15.0 0.00 0.00 0.00 61 1010.9
20260508143108 68 187 4.0 12.0 0.00 0.00 0.00 61 1010.9
20260508141555 67 283 5.0 12.0 0.00 0.00 0.00 63 1010.9
20260508140101 65 244 7.0 15.0 0.00 0.00 0.00 64 1011.0
20260508134548 64 170 6.0 12.0 0.00 0.00 0.00 66 1011.3
20260508133045 63 219 6.0 11.0 0.00 0.00 0.00 68 1011.3
20260508131545 61 262 5.0 12.0 0.00 0.00 0.00 72 1011.4
20260508130043 60 139 2.0 8.0 0.00 0.00 0.00 75 1011.5
20260508124542 58 18 4.0 10.0 0.00 0.00 0.00 77 1011.4
20260508123042 57 21 4.0 11.0 0.00 0.00 0.00 78 1011.4
20260508121543 56 22 4.0 8.0 0.00 0.00 0.00 79 1011.4
20260508120043 56 22 3.0 8.0 0.00 0.00 0.00 80 1011.4
20260508114545 56 24 3.0 6.0 0.00 0.00 0.00 80 1011.4
20260508113041 56 24 2.0 8.0 0.00 0.00 0.00 80 1011.3
20260508111551 56 26 3.0 8.0 0.00 0.00 0.00 80 1011.2
20260508110035 56 24 2.0 9.0 0.00 0.00 0.00 79 1011.2